TimeEDT,TemperatureF,Dew PointF,Humidity,Sea Level PressureIn,VisibilityMPH,Wind Direction,Wind SpeedMPH,Gust SpeedMPH,PrecipitationIn,Events,Conditions,WindDirDegrees,DateUTC
12:53 AM,62.1,59.0,90,30.12,10.0,Calm,Calm,-,N/A,,Overcast,0,2012-09-17 04:53:00
1:53 AM,62.1,59.0,90,30.12,10.0,Calm,Calm,-,N/A,,Overcast,0,2012-09-17 05:53:00
2:53 AM,63.0,59.0,87,30.10,10.0,Calm,Calm,-,N/A,,Overcast,0,2012-09-17 06:53:00
3:53 AM,63.0,59.0,87,30.09,10.0,Calm,Calm,-,N/A,,Overcast,0,2012-09-17 07:53:00
4:53 AM,63.0,59.0,87,30.08,10.0,Calm,Calm,-,N/A,,Overcast,0,2012-09-17 08:53:00
5:36 AM,62.6,57.2,82,30.10,10.0,Calm,Calm,-,N/A,,Mostly Cloudy,0,2012-09-17 09:36:00
5:53 AM,62.1,59.0,90,30.08,10.0,Calm,Calm,-,N/A,,Overcast,0,2012-09-17 09:53:00
6:34 AM,62.6,59.0,88,30.11,10.0,Calm,Calm,-,N/A,,Overcast,0,2012-09-17 10:34:00
6:53 AM,62.1,59.0,90,30.09,10.0,Calm,Calm,-,N/A,,Overcast,0,2012-09-17 10:53:00
7:22 AM,62.6,59.0,88,30.12,10.0,Calm,Calm,-,N/A,,Overcast,0,2012-09-17 11:22:00
7:31 AM,62.6,59.0,88,30.11,9.0,Calm,Calm,-,N/A,,Overcast,0,2012-09-17 11:31:00
7:53 AM,63.0,59.0,87,30.09,10.0,Calm,Calm,-,N/A,,Overcast,0,2012-09-17 11:53:00
8:00 AM,62.6,59.0,88,30.12,10.0,Calm,Calm,-,N/A,,Overcast,0,2012-09-17 12:00:00
8:17 AM,62.6,59.0,88,30.12,10.0,Calm,Calm,-,N/A,,Overcast,0,2012-09-17 12:17:00
8:26 AM,62.6,59.0,88,30.12,10.0,Calm,Calm,-,N/A,,Overcast,0,2012-09-17 12:26:00
8:53 AM,64.9,60.1,84,30.10,10.0,Calm,Calm,-,N/A,,Overcast,0,2012-09-17 12:53:00
9:03 AM,64.4,59.0,83,30.13,10.0,Calm,Calm,-,N/A,,Overcast,0,2012-09-17 13:03:00
9:53 AM,66.9,60.1,79,30.10,10.0,Calm,Calm,-,N/A,,Overcast,0,2012-09-17 13:53:00
10:30 AM,68.0,60.8,78,30.12,10.0,Calm,Calm,-,N/A,,Overcast,0,2012-09-17 14:30:00
10:53 AM,69.1,61.0,75,30.09,10.0,Calm,Calm,-,N/A,,Overcast,0,2012-09-17 14:53:00
11:53 AM,70.0,63.0,78,30.08,10.0,Calm,Calm,-,N/A,,Overcast,0,2012-09-17 15:53:00
12:53 PM,73.0,64.0,73,30.06,10.0,Calm,Calm,-,N/A,,Mostly Cloudy,0,2012-09-17 16:53:00
1:05 PM,73.4,64.4,73,30.08,10.0,Calm,Calm,-,N/A,,Overcast,0,2012-09-17 17:05:00
1:24 PM,73.4,64.4,73,30.08,10.0,Calm,Calm,-,N/A,,Overcast,0,2012-09-17 17:24:00
1:53 PM,73.0,64.9,76,30.04,10.0,Calm,Calm,-,N/A,,Overcast,0,2012-09-17 17:53:00
2:53 PM,73.0,64.9,76,30.02,10.0,Calm,Calm,-,N/A,,Overcast,0,2012-09-17 18:53:00
3:53 PM,73.9,66.0,76,30.01,10.0,ENE,3.5,-,N/A,,Overcast,70,2012-09-17 19:53:00
4:53 PM,73.0,66.0,79,29.99,10.0,NNE,4.6,-,N/A,,Overcast,30,2012-09-17 20:53:00
5:08 PM,71.6,68.0,88,30.02,1.8,Calm,Calm,-,0.10,Rain,Rain,0,2012-09-17 21:08:00
5:18 PM,69.8,66.2,88,30.02,0.8,NE,4.6,-,0.32,Rain,Heavy Rain,40,2012-09-17 21:18:00
5:24 PM,69.8,66.2,88,30.02,2.0,NE,4.6,-,0.35,Rain,Light Rain,50,2012-09-17 21:24:00
5:33 PM,69.8,68.0,94,30.01,6.0,NE,3.5,-,0.35,Rain,Light Rain,50,2012-09-17 21:33:00
5:49 PM,69.8,68.0,94,30.01,6.0,ENE,3.5,-,0.35,,Overcast,60,2012-09-17 21:49:00
5:53 PM,70.0,68.0,93,29.99,6.0,ENE,4.6,-,0.35,,Overcast,70,2012-09-17 21:53:00
6:21 PM,71.6,68.0,88,30.00,6.0,NE,4.6,-,N/A,,Overcast,40,2012-09-17 22:21:00
6:31 PM,71.6,68.0,88,30.00,5.0,NE,4.6,-,N/A,,Overcast,50,2012-09-17 22:31:00
6:53 PM,70.0,66.9,90,29.97,5.0,ENE,4.6,-,N/A,,Overcast,60,2012-09-17 22:53:00
7:53 PM,70.0,66.9,90,29.97,4.0,ENE,4.6,-,N/A,,Partly Cloudy,60,2012-09-17 23:53:00
8:53 PM,69.1,66.9,93,29.96,5.0,NE,3.5,-,N/A,,Partly Cloudy,50,2012-09-18 00:53:00
9:53 PM,69.1,66.9,93,29.95,4.0,East,5.8,-,0.00,,Overcast,80,2012-09-18 01:53:00
10:02 PM,69.8,66.2,88,29.98,5.0,East,3.5,-,N/A,,Overcast,90,2012-09-18 02:02:00
10:53 PM,69.1,66.9,93,29.94,4.0,East,4.6,-,0.00,,Mostly Cloudy,100,2012-09-18 02:53:00
11:03 PM,69.8,66.2,88,29.96,4.0,East,4.6,-,N/A,,Mostly Cloudy,100,2012-09-18 03:03:00
11:06 PM,69.8,66.2,88,29.96,4.0,East,4.6,-,N/A,,Mostly Cloudy,100,2012-09-18 03:06:00
11:13 PM,69.8,66.2,88,29.95,4.0,East,5.8,-,N/A,,Mostly Cloudy,90,2012-09-18 03:13:00
11:41 PM,69.8,66.2,88,29.94,7.0,East,5.8,-,N/A,,Mostly Cloudy,90,2012-09-18 03:41:00
11:48 PM,69.8,66.2,88,29.94,7.0,Variable,3.5,-,N/A,,Mostly Cloudy,0,2012-09-18 03:48:00
11:53 PM,70.0,66.9,90,29.91,7.0,Calm,Calm,-,N/A,,Mostly Cloudy,0,2012-09-18 03:53:00